User: anonymous   Login
Location: Cisewo
(53.3833°N, 14.9000°E)
Time: 11:35:31
(UTC+00:00)
Language:

DELFI C3 - Orbit

View from above orbital plane
View from above orbital plane
View from above satellite
View from above satellite

Ground track
Ground track

The orbit data is extracted from the following two-line orbital elements,

1 32789U 08021G   21269.65740455  .00003649  00000-0  23139-3 0  9999
2 32789  97.3691 301.1149 0012575 147.7952 212.4048 15.09452083732099
Epoch (UTC): 26 September 2021 15:46:39
Eccentricity: 0.0012575
inclination: 97.3691°
perigee height: 529 km
apogee height: 546 km
right ascension of ascending node: 301.1149°
argument of perigee: 147.7952°
revolutions per day: 15.09452083
mean anomaly at epoch: 212.4048°
orbit number at epoch: 73209

The dashed part of the orbit path shows where the satellite is in the earth's shadow,  

DLR